Vertical_Velocity
2 3 -1 3 8 7 -1 2 -1 -2 -2 -2 -0 -3 0 -3 -5 0 1 -1 -1 -5 2 -3 -1 -1 -2 -0 -0 -1 -1 -1 -1 -0 1 -1 -1 -1 -0 -0 -1 -1 -1 -1
3 2 -0 -2 1 3 6 7 3 -1 1 -1 -1 -6 1 1 -2 -2 2 -1 0 1 -0 -1 -1 -1 -0 -1 -1 -0 -1 -1 -1 -1 1 -1 -2 -1 -0 -2 -1 1 0 -1
2 -5 1 1 6 1 1 -2 -1 -2 1 0 -2 -9 -1 0 -3 1 2 0 -1 -0 -0 0 -0 1 1 1 1 0 -1 -1 0 -1 1 -1 -0 -0 0 -1 -2 -1 -1 -0
-1 1 1 1 2 -0 0 1 -0 -2 0 -1 -1 -8 -5 -4 -4 2 2 -0 -1 -1 1 -1 1 1 1 1 0 0 0 0 0 -1 1 -1 0 -1 -1 -1 -0 -1 -1 0
-1 -2 2 -1 2 0 -2 -0 -1 -0 0 0 -3 2 -1 -3 -2 -0 -3 0 1 -0 1 0 1 1 2 1 0 -0 0 -0 -2 -1 1 -0 -2 -2 -2 -1 -1 -1 -1 -1
2 1 2 2 1 2 -1 -1 -1 1 0 -1 0 2 -6 2 3 -0 2 1 1 2 1 0 2 2 2 1 0 0 -0 -1 -2 -1 0 0 -2 -1 -0 -0 0 0 0 -0
-0 1 0 0 2 -0 -1 -1 -1 -6 -2 -6 1 0 -2 3 2 1 -0 -1 0 0 -0 1 1 1 1 0 0 0 0 -0 -1 0 0 -1 -2 -2 -1 -0 0 1 1 -0
-0 -0 -1 -0 2 -0 -1 -1 -2 -4 -2 -2 -0 -4 -1 1 -1 2 -1 -3 0 0 0 -0 -1 -2 -2 -1 -2 -2 -2 -1 -2 -0 -0 -2 -2 -2 -1 -1 -1 -1 -1 -2
-1 -1 0 1 3 0 -1 0 1 -0 1 -0 -1 0 -4 -0 1 1 2 0 -0 -2 -3 -3 -2 -1 0 -1 -1 -1 -0 0 -0 -0 -2 -3 -3 -1 -1 -0 -0 -1 -1 -2
0 -0 0 2 0 -0 -0 -0 -1 -1 -3 -1 -3 1 -2 -0 -1 -2 -2 -4 -6 -5 -2 -2 -3 -2 -4 -2 -2 -2 -2 -1 -1 -2 -3 -3 -1 -0 1 1 -0 -1 -3 -2
1 1 -1 -1 -2 -3 -1 -2 -1 -2 0 -2 -1 -4 -2 -2 -1 -3 -1 0 2 2 0 -1 0 -1 -1 -1 0 -0 -0 -1 -0 -0 -1 -1 -2 -2 -2 -2 -2 -2 -1 -2
-2 -1 -2 -3 1 -0 0 1 0 -0 0 -0 1 -14 2 1 0 1 3 3 -2 -6 -5 3 3 3 2 5 2 4 3 3 4 1 0 -0 -2 -1 -1 -0 -1 -1 -2 -4
2 1 -1 0 -0 1 -1 0 4 0 2 -4 -1 -5 0 -2 4 3 -6 -1 -6 2 -3 -3 -5 -1 0 4 2 5 2 2 1 1 -0 -1 -2 -2 -2 -3 -3 -3 -4 -5
1 2 2 -0 -0 -0 -2 -3 -1 1 -1 -2 -22 6 -5 15 -0 -1 1 -3 4 3 3 2 6 5 0 -1 -4 4 0 2 2 2 1 -0 -1 -1 -0 -1 -1 -1 -3 -4
-4 -2 -4 -0 2 1 1 1 3 -2 2 -0 -2 5 9 6 4 2 1 2 -0 2 2 3 2 3 4 2 3 4 2 4 3 4 3 1 0 -1 -2 -2 -2 -3 -3 -3
-0 -4 -3 -9 -6 -3 -10 -3 1 -4 -2 -4 5 -12 -0 -7 1 -4 -2 -3 -3 -5 -3 -2 0 0 1 -1 -2 -4 4 2 3 2 2 1 1 1 -1 -1 -0 -1 -2 -2
-1 1 -0 -4 1 2 -8 -1 1 4 4 7 -1 5 -6 -4 -1 2 -0 -0 -2 -1 -3 -3 -1 0 2 2 1 1 3 3 5 4 2 -1 -0 1 1 -1 -3 -1 -2 -3
-0 3 2 -4 3 1 5 -0 -1 -0 -1 -1 3 2 -3 4 1 -0 -0 -2 0 -0 1 3 4 3 2 2 2 -1 -4 -1 -3 -1 2 2 -1 0 1 -3 -3 -1 -4 -3
9 5 -2 -3 0 -8 -6 -8 -2 1 2 -2 1 -0 1 5 4 2 -1 -2 -1 1 3 1 -1 -1 1 0 -3 -7 -2 -1 -3 -2 -2 2 2 2 2 2 -1 -1 -6 -4
-2 2 -1 6 2 -1 -1 -2 -2 -2 -3 -2 -0 4 3 3 -0 2 -1 2 2 1 -1 -3 -0 0 -1 -0 -0 1 0 1 2 2 2 5 5 -0 -1 -1 2 2 1 -5
-1 0 -6 4 0 -3 -5 1 -2 4 -7 0 2 -3 -3 1 1 2 3 2 -1 -2 -2 -1 -1 -1 2 1 -3 -1 -3 -1 -1 -1 -1 -0 -1 -1 2 2 -1 0 1 -3
1 1 -6 4 2 -7 -1 -0 -1 4 2 0 1 1 -0 2 2 -0 -2 -3 -3 -3 -2 -0 -2 -1 -0 1 -1 -0 1 6 0 -1 1 4 3 -1 -1 3 2 -1 -1 -4
-5 -8 3 -0 3 5 5 4 -0 -1 2 0 4 3 1 -0 -1 0 1 -1 -1 -2 -4 -5 -7 -9 -1 -1 2 -4 4 -1 -2 2 2 -0 4 1 0 -2 -3 -5 2 -3
3 4 -0 5 -10 -6 6 -1 5 8 5 2 1 1 -1 -3 -3 -3 -1 -2 -4 -2 -3 -4 -5 -5 -6 -2 -2 -1 -4 -0 -5 -9 -1 2 1 -2 -0 -1 -0 -1 1 1
-1 2 -4 -1 -2 -4 -3 -1 -4 -2 1 0 -4 -3 1 -1 1 -1 -2 -2 -1 -2 -1 0 -1 -5 -5 -3 -4 1 -3 -0 -6 -6 -2 -1 -0 -3 -5 2 -2 0 -1 4
1 -7 3 -6 0 2 -1 8 7 3 -1 1 0 -2 -10 -9 -4 1 -4 -2 -4 -5 -1 -7 -6 -5 -2 -4 -2 -4 3 6 2 -4 2 -0 -2 -5 -4 -2 -7 6 3 2
Height
3110 3114 3115 3121 3124 3125 3128 3132 3134 3135 3137 3138 3139 3139 3141 3141 3140 3142 3141 3139 3138 3135 3136 3134 3133 3133 3132 3132 3132 3132 3132 3132 3131 3130 3129 3127 3125 3124 3121 3119 3117 3115 3113 3111
3112 3113 3114 3117 3122 3124 3126 3130 3132 3133 3135 3136 3136 3135 3137 3137 3136 3136 3135 3133 3132 3132 3131 3130 3129 3129 3129 3129 3129 3129 3129 3129 3129 3128 3126 3124 3123 3121 3119 3117 3114 3112 3110 3108
3111 3112 3115 3119 3122 3123 3125 3128 3130 3132 3133 3133 3133 3131 3131 3132 3132 3132 3131 3129 3128 3128 3127 3126 3126 3126 3126 3126 3126 3127 3127 3127 3127 3126 3124 3122 3120 3118 3116 3113 3110 3108 3105 3103
3112 3113 3115 3118 3119 3122 3124 3127 3129 3130 3132 3131 3132 3130 3128 3129 3128 3127 3126 3125 3124 3124 3124 3123 3123 3123 3124 3123 3124 3124 3124 3124 3124 3123 3121 3119 3117 3114 3112 3109 3107 3104 3102 3099
3112 3112 3115 3117 3120 3121 3124 3125 3127 3129 3129 3129 3129 3130 3123 3123 3123 3123 3122 3122 3121 3120 3120 3121 3121 3121 3121 3121 3121 3122 3121 3121 3120 3119 3118 3115 3113 3111 3108 3106 3104 3101 3098 3095
3111 3113 3116 3118 3119 3120 3122 3124 3126 3127 3126 3127 3125 3126 3121 3121 3120 3119 3119 3118 3118 3118 3118 3118 3118 3118 3119 3118 3119 3119 3118 3118 3117 3116 3114 3112 3110 3107 3105 3102 3101 3098 3095 3092
3112 3114 3116 3118 3119 3120 3122 3124 3125 3128 3127 3126 3122 3123 3119 3118 3118 3117 3116 3115 3115 3115 3115 3116 3116 3116 3116 3116 3115 3115 3115 3114 3113 3112 3110 3108 3105 3103 3100 3098 3097 3095 3092 3089
3112 3116 3115 3116 3117 3118 3120 3123 3123 3128 3128 3122 3122 3117 3115 3115 3115 3116 3114 3113 3113 3114 3114 3114 3114 3113 3113 3112 3112 3112 3111 3110 3109 3107 3106 3104 3101 3099 3096 3094 3092 3090 3088 3084
3112 3112 3113 3114 3115 3118 3119 3121 3123 3123 3122 3121 3118 3116 3115 3113 3113 3112 3112 3111 3111 3112 3112 3111 3110 3109 3109 3108 3108 3107 3107 3106 3104 3103 3101 3099 3097 3094 3092 3090 3088 3086 3083 3080
3111 3112 3112 3113 3115 3116 3118 3120 3121 3122 3124 3121 3112 3112 3110 3110 3110 3109 3109 3109 3109 3108 3108 3107 3107 3105 3105 3104 3104 3103 3102 3101 3100 3098 3097 3095 3092 3090 3088 3085 3083 3081 3078 3075
3111 3111 3113 3112 3113 3114 3116 3117 3118 3120 3120 3119 3118 3111 3109 3108 3108 3107 3106 3106 3106 3105 3105 3103 3103 3101 3100 3099 3099 3098 3097 3096 3094 3093 3091 3089 3086 3084 3082 3079 3077 3075 3072 3070
3109 3110 3110 3111 3112 3112 3113 3113 3115 3116 3116 3115 3114 3108 3107 3106 3105 3104 3103 3103 3102 3100 3098 3098 3096 3095 3095 3095 3094 3093 3091 3090 3088 3086 3084 3082 3080 3078 3076 3073 3071 3068 3066 3064
3108 3108 3109 3108 3110 3108 3108 3109 3111 3112 3112 3111 3112 3107 3105 3104 3104 3102 3099 3099 3098 3097 3093 3091 3090 3090 3089 3088 3087 3087 3085 3083 3082 3080 3078 3076 3074 3072 3069 3066 3064 3061 3059 3056
3106 3106 3106 3106 3105 3106 3105 3106 3107 3107 3107 3103 3103 3103 3104 3102 3098 3095 3094 3094 3094 3091 3089 3087 3085 3083 3081 3080 3078 3079 3077 3076 3075 3073 3071 3069 3066 3064 3062 3059 3056 3053 3050 3047
3104 3103 3103 3103 3103 3102 3102 3102 3102 3100 3099 3097 3096 3097 3099 3094 3090 3089 3088 3086 3085 3084 3083 3081 3079 3078 3076 3073 3071 3071 3070 3069 3068 3066 3063 3061 3059 3056 3054 3051 3047 3044 3041 3038
3100 3099 3098 3097 3097 3096 3095 3094 3093 3092 3091 3090 3091 3089 3089 3087 3085 3083 3081 3079 3078 3077 3075 3074 3073 3071 3070 3067 3065 3064 3064 3062 3061 3058 3056 3053 3050 3046 3043 3040 3037 3034 3030 3027
3098 3097 3095 3093 3092 3091 3087 3081 3082 3083 3083 3084 3082 3083 3080 3079 3077 3077 3074 3072 3071 3070 3069 3067 3066 3064 3063 3062 3060 3059 3057 3056 3054 3051 3048 3044 3039 3036 3032 3028 3025 3022 3019 3016
3092 3093 3094 3091 3090 3087 3078 3077 3078 3077 3077 3078 3079 3076 3075 3076 3073 3071 3067 3068 3066 3065 3063 3062 3061 3059 3057 3056 3053 3051 3050 3047 3043 3041 3037 3033 3028 3024 3020 3016 3013 3009 3007 3004
3088 3089 3090 3089 3086 3078 3074 3073 3074 3072 3072 3073 3072 3071 3071 3072 3069 3066 3060 3062 3060 3059 3058 3056 3054 3053 3051 3048 3044 3041 3039 3036 3032 3029 3025 3021 3017 3012 3007 3004 3001 2998 2995 2993
3085 3086 3088 3087 3084 3076 3068 3069 3069 3068 3066 3066 3066 3065 3065 3064 3064 3062 3056 3056 3055 3053 3051 3049 3047 3044 3040 3036 3032 3030 3027 3023 3020 3016 3012 3009 3005 3000 2996 2993 2990 2987 2983 2980
3080 3080 3079 3079 3078 3069 3063 3065 3066 3066 3065 3060 3060 3060 3061 3060 3057 3054 3052 3049 3046 3043 3041 3038 3035 3031 3028 3024 3020 3018 3015 3012 3007 3003 2999 2996 2993 2989 2985 2981 2979 2976 2972 2969
3076 3076 3074 3075 3074 3067 3061 3061 3065 3062 3058 3058 3056 3054 3051 3050 3047 3044 3042 3040 3038 3034 3030 3026 3023 3019 3016 3013 3008 3004 3001 2998 2993 2990 2986 2982 2979 2976 2973 2970 2966 2963 2960 2957
3073 3072 3071 3071 3064 3059 3059 3058 3058 3056 3054 3051 3049 3046 3043 3041 3040 3038 3034 3030 3027 3023 3019 3016 3012 3008 3006 3003 2998 2993 2988 2984 2981 2978 2973 2970 2967 2963 2960 2958 2955 2952 2949 2945
3063 3064 3061 3063 3059 3054 3053 3054 3051 3048 3045 3041 3039 3038 3036 3032 3030 3028 3024 3021 3017 3014 3010 3006 3001 2998 2993 2990 2986 2983 2979 2974 2968 2965 2961 2957 2952 2948 2946 2945 2942 2939 2937 2934
3057 3055 3053 3050 3049 3048 3044 3042 3041 3038 3036 3034 3031 3031 3030 3026 3024 3020 3016 3012 3009 3004 3000 2996 2991 2986 2982 2978 2974 2971 2967 2962 2956 2952 2947 2942 2938 2934 2932 2930 2928 2925 2924 2922
3045 3045 3045 3040 3040 3039 3036 3034 3029 3027 3026 3025 3023 3021 3021 3022 3019 3014 3010 3005 3000 2995 2990 2985 2981 2975 2969 2965 2962 2958 2956 2950 2944 2938 2935 2931 2927 2923 2921 2918 2914 2913 2911 2909